Flag for Czech Republic Weather past 2 weeks in Brno, Czech Republic

Now
51 °F

Overcast.


Feels Like: 51 °F
Forecast: 40 / 50 °F
Wind: 3 mph from South

Location: Brno / Turany

Current Time: Mar 29, 2015 at 4:19:37 PM

Latest Report: Mar 29, 2015 at 3:00 PM


Visibility: 13 mi

Pressure: 29.73 "Hg

Humidity: 70%

Dew point: 42 °F

Location of BrnoLocation

Historic Weather in Brno — Graph

°F

Brno temperature yesterday

Maximum temperature yesterday: 48 °F (at 2:00 PM)
Minimum temperature yesterday: 37 °F (at 11:00 PM)
Average temperature yesterday: 44 °F

Past Weeks' High & Low Weather Summary

 TemperatureHumidityPressure
High62 °F (Mar 25, 1:00 PM)95% (Mar 27, 1:00 AM)30.55 "Hg (Mar 27, 1:00 AM)
Low28 °F (Mar 23, 5:00 AM)29% (Mar 19, 3:00 PM)29.73 "Hg (Mar 29, 3:00 PM)
Average45 °F64%30.14 "Hg
* Reported Mar 14 2:00 PM — Mar 29 3:00 PM, Brno, Weather by CustomWeather, © 2015

Note: Actual official high and low records may vary slightly from our data, if they occured in-between our weather recording intervals... More about our weather records

Advertising

Brno weather history for previous 24 hours

 ConditionsComfort  
Time TempWeatherWind HumidityBarometerVisibility
3:00 PM
Sun, Mar 29
51 °FOvercast.3 mph70%29.73 "Hg12 mi
2:00 PM50 °FOvercast.3 mph68%29.76 "Hg9 mi
1:00 PM47 °FOvercast.3 mph71%29.79 "Hg11 mi
12:00 PM45 °FOvercast.2 mph73%29.82 "Hg9 mi
11:00 AM40 °FOvercast.2 mph76%29.86 "Hg9 mi
10:00 AM37 °FOvercast.2 mph83%29.89 "Hg7 mi
9:00 AM35 °FFog.1 mph87%29.91 "Hg4 mi
8:00 AM34 °FOvercast.1 mph89%29.93 "Hg5 mi
7:00 AM33 °FFog.1 mph91%29.94 "Hg4 mi
6:00 AM33 °FFog.1 mph88%29.95 "Hg4 mi
5:00 AM32 °FFog.1 mph89%29.97 "Hg5 mi
4:00 AM31 °FFog.1 mph88%29.98 "Hg4 mi
3:00 AM34 °FFog.1 mph83%30.00 "Hg4 mi
1:00 AM33 °FFog.5 mph87%30.02 "Hg5 mi
12:00 AM35 °FPassing clouds.2 mph84%30.03 "Hg6 mi
11:00 PM
Sat, Mar 28
37 °FPassing clouds.1 mph78%30.03 "Hg6 mi
9:00 PM40 °FPassing clouds.1 mph69%30.06 "Hg11 mi
8:00 PM43 °FPassing clouds.3 mph63%30.06 "Hg12 mi
7:00 PM46 °FOvercast.6 mph57%30.06 "Hg12 mi
6:00 PM46 °FOvercast.5 mph56%30.06 "Hg16 mi
5:00 PM47 °FOvercast.6 mph53%30.05 "Hg16 mi
4:00 PM47 °FOvercast.5 mph51%30.06 "Hg16 mi
Weather by CustomWeather, © 2015

See weather overviewHow to use our weather pages